GW1451 Weather Reports


time (UTC)temp
C
wind
direction
speed
KPH
gust
KPH
rain 1hr
cm
rain 24hr
cm
rain mn
cm
humidity
%
barometer
mb
20260508023740 7 293 8.0 24.1 0.03 0.69 0.69 99 981.2
20260508023228 7 225 1.6 24.1 0.03 0.69 0.69 99 981.3
20260508022718 7 270 6.4 24.1 0.03 0.69 0.69 99 981.4
20260508015617 7 203 8.0 24.1 0.05 0.69 0.69 99 981.2
20260508015107 7 203 6.4 33.8 0.05 0.69 0.69 99 981.4
20260508014557 7 225 6.4 33.8 0.05 0.69 0.69 99 981.4
20260508014047 8 293 3.2 24.1 0.03 0.66 0.66 99 981.7
20260508013536 8 270 6.4 24.1 0.03 0.66 0.66 99 981.5
20260508012007 8 248 6.4 24.1 0.10 0.66 0.66 99 981.9
20260508011456 8 248 6.4 20.9 0.10 0.66 0.66 99 981.6
20260508010947 8 225 8.0 22.5 0.05 0.64 0.64 99 982.0
20260508010436 8 45 6.4 32.2 0.05 0.64 0.64 99 982.0
20260508005926 8 248 9.7 32.2 0.10 0.64 0.64 99 982.2
20260508005417 8 248 6.4 25.7 0.10 0.64 0.64 99 982.0
20260508003846 9 225 8.0 22.5 0.13 0.64 0.64 99 982.1
20260508003336 9 338 4.8 17.7 0.13 0.64 0.64 99 982.1
20260508002317 10 293 3.2 20.9 0.13 0.61 0.61 99 982.4
20260508001806 10 203 3.2 20.9 0.10 0.56 0.56 99 982.2
20260508001255 10 225 6.4 20.9 0.13 0.56 0.56 99 982.3
20260508000235 10 225 8.0 17.7 0.10 0.53 0.53 99 982.4
20260507235725 10 270 3.2 14.5 0.10 0.53 0.53 99 982.3
20260507235215 10 248 3.2 22.5 0.13 0.53 0.53 99 982.1
20260507234705 10 293 11.3 22.5 0.13 0.53 0.53 99 982.2
20260507233646 10 338 4.8 24.1 0.13 0.51 0.51 99 982.0
20260507233134 10 315 4.8 17.7 0.13 0.51 0.51 99 981.8
20260507232116 10 180 6.4 27.4 0.13 0.48 0.48 99 981.9
20260507231604 10 225 8.0 25.7 0.15 0.48 0.48 99 981.6
20260507230543 10 225 6.4 17.7 0.15 0.46 0.46 99 981.8
20260507230034 10 270 3.2 14.5 0.15 0.46 0.46 99 981.7
20260507225525 10 203 3.2 14.5 0.15 0.43 0.43 99 981.7
20260507225014 10 293 1.6 14.5 0.15 0.43 0.43 99 981.7
20260507224504 10 270 4.8 17.7 0.18 0.43 0.43 99 981.5
20260507223953 10 248 4.8 17.7 0.18 0.43 0.43 99 981.5
20260507223443 10 248 3.2 17.7 0.18 0.38 0.38 99 981.8
20260507222933 10 270 3.2 17.7 0.18 0.38 0.38 99 981.7
20260507222422 11 248 9.7 17.7 0.15 0.36 0.36 99 981.7
20260507221913 11 203 6.4 14.5 0.18 0.36 0.36 99 981.6
20260507221404 11 203 3.2 20.9 0.15 0.33 0.33 99 981.6
20260507220852 11 270 3.2 20.9 0.13 0.30 0.30 99 981.4
20260507220343 11 203 3.2 14.5 0.13 0.30 0.30 99 981.3
20260507215832 11 225 3.2 22.5 0.13 0.30 0.30 99 981.4
20260507215322 11 248 3.2 22.5 0.10 0.28 0.28 99 981.4
20260507214302 11 293 6.4 24.1 0.13 0.23 0.23 99 981.8
20260507213752 11 293 3.2 12.9 0.13 0.23 0.23 99 981.4
20260507213241 11 158 3.2 14.5 0.18 0.20 0.20 99 981.2
20260507212732 11 248 1.6 14.5 0.18 0.20 0.20 99 981.3
20260507212222 11 248 4.8 17.7 0.15 0.18 0.18 99 981.0
20260507211711 11 203 3.2 17.7 0.15 0.18 0.18 99 980.7
20260507211201 11 293 1.6 17.7 0.15 0.18 0.18 99 980.4
20260507210651 11 180 3.2 17.7 0.15 0.18 0.18 99 980.5
20260507210141 11 293 3.2 24.1 0.15 0.18 0.18 99 980.4
20260507205631 11 158 6.4 27.4 0.15 0.18 0.18 98 980.4
20260507205121 11 248 8.0 27.4 0.13 0.15 0.15 98 980.4
20260507204611 11 270 8.0 14.5 0.13 0.15 0.15 98 980.5
20260507204101 12 203 3.2 12.9 0.10 0.13 0.13 99 980.6
20260507203551 12 248 3.2 3.2 0.03 0.05 0.05 98 980.9
20260507203040 12 203 0.0 3.2 0.00 0.03 0.03 98 980.7
20260507202530 13 180 0.0 3.2 0.00 0.03 0.03 99 980.9
20260507201517 13 135 3.2 6.4 0.00 0.03 0.03 99 981.5
20260507201000 13 135 3.2 6.4 0.00 0.03 0.03 99 981.4
20260507195940 13 158 3.2 6.4 0.00 0.03 0.03 99 981.8
20260507195431 13 135 3.2 6.4 0.00 0.03 0.03 99 982.0
20260507194919 13 158 1.6 9.7 0.00 0.03 0.03 99 982.0
20260507194412 13 180 6.4 9.7 0.00 0.03 0.03 98 981.9
20260507193900 13 158 3.2 9.7 0.00 0.03 0.03 99 981.8
20260507193349 13 180 6.4 12.9 0.00 0.03 0.03 98 981.7
20260507192838 13 158 9.7 12.9 0.00 0.03 0.03 97 981.7
20260507192329 13 158 6.4 12.9 0.00 0.03 0.03 96 981.8
20260507191309 14 158 11.3 17.7 0.00 0.03 0.03 95 981.7
20260507190248 14 135 8.0 14.5 0.00 0.03 0.03 94 981.7
20260507185739 15 135 9.7 14.5 0.00 0.03 0.03 94 981.5
20260507185228 15 180 6.4 12.9 0.00 0.03 0.03 89 981.8
20260507184718 16 225 1.6 6.4 0.00 0.03 0.03 86 981.7
20260507184208 16 225 0.0 3.2 0.00 0.03 0.03 85 981.8
20260507183149 16 180 0.0 9.7 0.00 0.03 0.03 85 981.6
20260507182638 16 270 3.2 9.7 0.00 0.03 0.03 84 981.6
20260507182125 16 158 0.0 6.4 0.00 0.03 0.03 83 981.8
20260507181614 16 158 3.2 11.3 0.00 0.03 0.03 84 981.5
20260507181105 16 225 6.4 11.3 0.00 0.03 0.03 84 981.3
20260507180559 16 293 3.2 11.3 0.00 0.03 0.03 83 981.3
20260507180048 16 248 3.2 11.3 0.00 0.03 0.03 86 981.3
20260507175538 16 158 3.2 11.3 0.00 0.03 0.03 84 981.5
20260507175026 17 180 3.2 6.4 0.00 0.03 0.03 85 981.7
20260507174517 16 270 3.2 6.4 0.00 0.03 0.03 86 981.5
20260507174007 16 203 3.2 6.4 0.00 0.03 0.03 86 981.4
20260507173456 16 180 3.2 6.4 0.00 0.03 0.03 88 981.6
20260507172946 16 225 3.2 6.4 0.00 0.03 0.03 89 981.7
20260507172437 14 203 1.6 6.4 0.00 0.03 0.03 91 981.6
20260507171926 14 225 1.6 6.4 0.00 0.03 0.03 95 981.6
20260507171416 14 270 1.6 6.4 0.00 0.03 0.03 94 982.0
20260507170906 14 158 3.2 6.4 0.00 0.03 0.03 91 981.7
20260507170356 14 180 1.6 9.7 0.00 0.03 0.03 93 982.0
20260507165335 14 135 3.2 9.7 0.00 0.03 0.03 93 981.7
20260507164826 15 158 3.2 9.7 0.00 0.03 0.03 92 981.9
20260507164316 14 180 3.2 6.4 0.00 0.03 0.03 93 981.9
20260507163256 14 203 1.6 9.7 0.00 0.03 0.03 93 981.8
20260507162745 14 203 3.2 14.5 0.00 0.03 0.03 93 982.0
20260507162235 14 180 3.2 14.5 0.00 0.03 0.03 92 982.0
20260507161726 14 158 4.8 14.5 0.00 0.03 0.03 91 981.8
20260507161214 14 158 8.0 17.7 0.00 0.03 0.03 93 981.6
20260507160705 14 158 11.3 17.7 0.00 0.03 0.03 93 981.9
20260507160155 14 158 6.4 12.9 0.00 0.03 0.03 92 981.9
20260507155644 14 180 6.4 17.7 0.00 0.03 0.03 91 981.5
20260507155134 14 158 6.4 17.7 0.00 0.03 0.03 92 981.5
20260507154624 14 135 6.4 12.9 0.00 0.03 0.03 95 981.4
20260507154113 14 270 1.6 12.9 0.00 0.03 0.03 92 981.4
20260507153604 15 113 3.2 12.9 0.00 0.03 0.03 92 980.9
20260507153056 15 90 1.6 6.4 0.00 0.03 0.03 92 980.9
20260507152544 14 180 3.2 6.4 0.00 0.03 0.03 93 980.7
20260507152043 14 180 3.2 12.9 0.00 0.03 0.03 94 980.7
20260507151524 14 180 3.2 12.9 0.00 0.03 0.03 94 980.9
20260507151013 14 270 4.8 14.5 0.00 0.03 0.03 94 981.4
20260507150504 15 248 3.2 14.5 0.00 0.03 0.03 93 981.6
20260507145953 15 225 3.2 9.7 0.00 0.03 0.03 94 981.7
20260507145443 14 203 0.0 6.4 0.00 0.03 0.03 94 982.2
20260507144933 14 248 3.2 9.7 0.00 0.03 0.03 95 982.1
20260507143913 13 248 3.2 11.3 0.00 0.03 0.03 96 982.4
20260507142342 13 180 4.8 11.3 0.00 0.03 0.03 98 982.0
20260507141832 13 248 1.6 9.7 0.00 0.03 0.03 99 982.0
20260507141323 13 180 1.6 9.7 0.00 0.03 0.03 99 982.1
20260507140813 13 135 3.2 11.3 0.00 0.03 0.03 99 981.9
20260507140302 13 203 3.2 11.3 0.00 0.03 0.03 99 981.8
20260507135243 13 158 1.6 17.7 0.00 0.03 0.03 99 982.0
20260507134731 13 180 3.2 17.7 0.00 0.03 0.03 99 982.1
20260507133711 13 158 3.2 14.5 0.00 0.03 0.03 99 981.8
20260507133201 13 158 4.8 14.5 0.03 0.03 0.03 99 981.9
20260507132652 13 203 3.2 12.9 0.03 0.03 0.03 99 981.6
20260507132142 13 203 3.2 17.7 0.03 0.03 0.03 99 981.9
20260507131631 13 180 6.4 17.7 0.03 0.03 0.03 99 982.0
20260507131120 13 135 8.0 12.9 0.03 0.03 0.03 99 982.2
20260507130611 12 203 1.6 9.7 0.03 0.03 0.03 99 981.8
20260507130109 12 158 1.6 6.4 0.03 0.03 0.03 99 981.8
20260507125040 12 225 1.6 12.9 0.03 0.03 0.03 99 981.5
20260507124530 12 225 3.2 12.9 0.03 0.03 0.03 99 982.0
20260507124020 12 225 0.0 12.9 0.03 0.03 0.03 99 981.9
20260507123511 12 180 4.8 12.9 0.00 0.00 0.00 99 982.2
20260507123000 12 248 6.4 9.7 0.00 0.00 0.00 99 982.3
20260507122449 12 248 3.2 9.7 0.00 0.00 0.00 99 982.4
20260507121940 12 248 3.2 12.9 0.00 0.00 0.00 99 982.6
20260507121429 12 248 3.2 12.9 0.00 0.00 0.00 99 982.8
20260507120920 12 203 1.6 11.3 0.00 0.00 0.00 99 982.7
20260507120410 12 225 1.6 6.4 0.00 0.00 0.00 99 982.3
20260507115900 12 270 3.2 11.3 0.00 0.00 0.00 99 982.5
20260507115349 12 158 3.2 11.3 0.00 0.00 0.00 99 982.1
20260507114840 12 248 1.6 12.9 0.00 0.00 0.00 99 981.9
20260507114334 12 225 4.8 12.9 0.00 0.00 0.00 99 981.8
20260507113819 12 248 1.6 9.7 0.00 0.00 0.00 99 981.8
20260507113308 12 203 3.2 11.3 0.00 0.00 0.00 99 982.0
20260507112800 12 270 1.6 11.3 0.00 0.00 0.00 99 982.0
20260507112249 12 158 3.2 17.7 0.00 0.00 0.00 99 982.1
20260507111739 12 225 1.6 17.7 0.00 0.00 0.00 99 982.1
20260507111228 12 225 6.4 17.7 0.00 0.00 0.00 99 982.1
20260507110719 12 225 1.6 11.3 0.00 0.00 0.00 99 981.9
20260507110209 12 180 1.6 14.5 0.00 0.00 0.00 99 982.1
20260507105658 12 225 1.6 14.5 0.00 0.00 0.00 99 982.3
20260507105149 12 203 3.2 17.7 0.00 0.00 0.00 99 982.3
20260507104638 12 248 3.2 17.7 0.00 0.00 0.00 99 982.4
20260507104127 12 180 3.2 17.7 0.00 0.00 0.00 99 982.2
20260507103618 12 248 3.2 17.7 0.00 0.00 0.00 99 982.3
20260507103107 12 293 3.2 9.7 0.00 0.00 0.00 99 982.4
20260507102557 12 248 1.6 9.7 0.00 0.00 0.00 99 982.3
20260507102047 12 248 1.6 9.7 0.00 0.00 0.00 99 982.5
20260507101536 12 270 4.8 9.7 0.00 0.00 0.00 99 982.2
20260507101027 12 248 4.8 14.5 0.00 0.00 0.00 99 982.1
20260507100007 12 203 4.8 14.5 0.00 0.00 0.00 99 982.5
20260507095457 12 225 3.2 12.9 0.00 0.00 0.00 99 982.4
20260507094947 12 248 3.2 11.3 0.00 0.00 0.00 99 982.5
20260507094434 12 225 1.6 11.3 0.00 0.00 0.00 99 982.8
20260507093926 12 270 3.2 14.5 0.00 0.00 0.00 99 982.9
20260507093416 12 203 3.2 14.5 0.00 0.00 0.00 99 983.1
20260507092356 12 180 8.0 11.3 0.00 0.00 0.00 99 982.9
20260507091845 12 225 4.8 12.9 0.00 0.00 0.00 99 983.3
20260507091336 12 225 3.2 14.5 0.00 0.00 0.00 99 983.0
20260507090316 12 180 4.8 17.7 0.00 0.00 0.00 99 983.2
20260507085806 12 248 1.6 12.9 0.00 0.00 0.00 99 983.1
20260507085255 12 270 3.2 12.9 0.00 0.00 0.00 99 982.9
20260507084235 12 158 3.2 14.5 0.00 0.00 0.00 99 983.3
20260507083724 12 248 3.2 17.7 0.00 0.00 0.00 99 983.0
20260507082704 12 225 6.4 17.7 0.00 0.00 0.00 99 983.2
20260507082155 12 270 4.8 17.7 0.00 0.00 0.00 99 983.3
20260507081644 12 203 3.2 17.7 0.00 0.00 0.00 99 983.4
20260507081134 12 270 6.4 14.5 0.00 0.00 0.00 99 983.5
20260507075603 12 293 3.2 27.4 0.00 1.52 0.00 99 983.3
20260507075052 12 180 3.2 27.4 0.00 1.52 0.00 99 982.9
20260507074541 12 270 3.2 20.9 0.00 1.52 0.00 99 982.7
20260507074032 12 248 9.7 20.9 0.00 1.52 0.00 99 982.5
20260507073523 12 203 8.0 17.7 0.00 1.52 0.00 99 982.6
20260507073012 12 293 9.7 17.7 0.00 1.52 0.00 99 983.2
20260507072501 12 293 6.4 12.9 0.00 1.52 0.00 99 983.2
20260507071951 12 293 6.4 12.9 0.00 1.52 0.00 99 983.0
20260507071441 12 293 6.4 12.9 0.00 1.52 0.00 99 982.7
20260507070933 12 293 6.4 11.3 0.00 1.52 0.00 99 982.7
20260507070424 12 315 6.4 9.7 0.00 1.52 0.00 99 982.6
20260507065910 12 293 4.8 9.7 0.00 1.52 0.00 99 982.8
20260507065400 12 248 3.2 6.4 0.00 1.52 0.00 99 982.7
20260507064850 12 293 3.2 6.4 0.00 1.52 0.00 99 982.8
20260507063831 12 270 1.6 9.7 0.00 1.52 0.00 99 983.3
20260507063320 12 270 3.2 9.7 0.00 1.52 0.00 99 983.0
20260507062811 12 270 3.2 6.4 0.00 1.52 0.00 99 982.7
20260507062301 12 225 1.6 3.2 0.00 1.52 0.00 99 982.6
20260507061749 12 225 0.0 3.2 0.00 1.52 0.00 99 982.5
20260507061239 12 203 1.6 6.4 0.00 1.52 0.00 99 982.4
20260507060730 12 68 1.6 6.4 0.00 1.52 0.00 99 982.5
20260507060220 12 135 3.2 3.2 0.00 1.52 0.00 99 982.0
20260507055200 12 180 0.0 3.2 0.00 1.52 0.00 99 981.8
20260507054139 12 135 1.6 6.4 0.00 1.52 0.00 99 981.9
20260507053629 12 180 3.2 9.7 0.00 1.52 0.00 99 982.0
20260507053119 12 158 3.2 9.7 0.00 1.52 0.00 99 981.7
20260507052609 12 158 3.2 6.4 0.00 1.52 0.00 99 981.8
20260507052059 12 158 3.2 9.7 0.00 1.52 0.00 99 981.9
20260507051548 12 135 0.0 9.7 0.00 1.52 0.00 99 982.4
20260507051038 12 158 3.2 6.4 0.00 1.52 0.00 99 982.6
20260507050018 12 158 0.0 6.4 0.00 1.52 0.00 99 982.8
20260507045509 12 180 1.6 6.4 0.00 1.52 0.00 99 983.0
20260507044958 12 248 3.2 6.4 0.00 1.52 0.00 99 982.7
20260507044449 12 158 0.0 9.7 0.00 1.52 0.00 99 982.6
20260507043937 12 158 3.2 11.3 0.00 1.52 0.00 99 982.1
20260507043427 12 158 3.2 11.3 0.00 1.52 0.00 99 982.0
20260507042917 12 135 4.8 17.7 0.00 1.52 0.00 99 982.0
20260507042408 12 180 6.4 17.7 0.00 1.52 0.00 99 981.9
20260507041858 12 158 9.7 14.5 0.00 1.52 0.00 99 982.7
20260507040837 12 158 8.0 25.7 0.00 1.52 0.00 99 982.6
20260507040327 12 203 3.2 25.7 0.00 1.52 0.00 99 982.7
20260507035818 12 158 17.7 27.4 0.00 1.52 0.00 99 982.1
20260507035308 12 158 17.7 27.4 0.00 1.52 0.00 99 982.0
20260507034757 12 135 16.1 27.4 0.00 1.52 0.00 99 981.6
20260507034247 12 180 16.1 25.7 0.00 1.52 0.00 99 981.9
20260507033736 12 180 17.7 32.2 0.00 1.52 0.00 99 981.8
20260507033226 12 180 22.5 37.0 0.00 1.52 0.00 99 982.0
20260507032717 12 158 20.9 37.0 0.00 1.52 0.00 99 982.2
20260507032206 12 158 20.9 32.2 0.00 1.52 0.00 99 982.2
20260507031656 12 158 19.3 32.2 0.00 1.52 0.00 99 982.1
20260507031146 12 158 11.3 27.4 0.00 1.52 0.00 99 981.8
20260507030636 12 158 14.5 27.4 0.00 1.52 0.00 99 981.8
20260507030126 12 158 17.7 27.4 0.00 1.52 0.00 99 981.8
20260507025617 12 158 12.9 24.1 0.00 1.52 3.91 99 981.7
20260507024555 12 180 6.4 24.1 0.00 1.52 3.91 99 982.0